2023/05/17 00:00:00, 0.7,15.3
2023/05/17 00:10:00, 0.6,15.4
2023/05/17 00:20:00, 0.6,15.0
2023/05/17 00:30:00, 0.9,15.1
2023/05/17 00:40:00, 0.7,14.8
2023/05/17 00:50:00, 1.7,14.7
2023/05/17 01:00:00, 1.8,14.6
2023/05/17 01:10:00, 1.9,14.3
2023/05/17 01:20:00, 2.0,14.2
2023/05/17 01:30:00, 1.6,14.4
2023/05/17 01:40:00, 1.7,14.2
2023/05/17 01:50:00, 1.5,14.2
2023/05/17 02:00:00, 1.4,14.1
2023/05/17 02:10:00, 2.0,14.0
2023/05/17 02:20:00, 1.5,13.8
2023/05/17 02:30:00, 1.1,13.7
2023/05/17 02:40:00, 1.3,13.6
2023/05/17 02:50:00, 1.8,13.4
2023/05/17 03:00:00, 2.2,13.4
2023/05/17 03:10:00, 2.8,13.3
2023/05/17 03:20:00, 2.4,13.2
2023/05/17 03:30:00, 2.6,13.1
2023/05/17 03:40:00, 2.9,13.1
2023/05/17 03:50:00, 4.4,12.9
2023/05/17 04:00:00, 5.6,12.7
2023/05/17 04:10:00, 4.7,12.7
2023/05/17 04:20:00, 3.6,12.6
2023/05/17 04:30:00, 3.2,12.5
2023/05/17 04:40:00, 2.7,12.6
2023/05/17 04:50:00, 2.7,12.4
2023/05/17 05:00:00, 1.7,12.4
2023/05/17 05:10:00, 1.3,12.1
2023/05/17 05:20:00, 0.9,12.3
2023/05/17 05:30:00, 0.9,12.2
2023/05/17 05:40:00, 1.3,12.2
2023/05/17 05:50:00, 2.0,12.4
2023/05/17 06:00:00,---,12.4
2023/05/17 06:10:00, 0.7,12.4
2023/05/17 06:20:00, 1.3,12.6
2023/05/17 06:30:00, 2.0,12.6
2023/05/17 06:40:00, 1.0,13.1
2023/05/17 06:50:00, 1.0,13.3
2023/05/17 07:00:00, 1.1,13.6
2023/05/17 07:10:00, 0.9,15.1
2023/05/17 07:20:00, 1.0,14.6
2023/05/17 07:30:00, 0.5,15.8
2023/05/17 07:40:00, 0.7,16.1
2023/05/17 07:50:00, 1.0,16.3
2023/05/17 08:00:00, 1.3,16.8
2023/05/17 08:10:00, 1.3,17.9
2023/05/17 08:20:00, 0.9,18.3
2023/05/17 08:30:00, 0.8,18.6
2023/05/17 08:40:00, 0.4,19.4
2023/05/17 08:50:00, 0.3,20.4
2023/05/17 09:00:00, 0.2,21.5
2023/05/17 09:10:00, 0.1,21.7
2023/05/17 09:20:00, 0.1,22.4
2023/05/17 09:30:00, 0.0,23.0
2023/05/17 09:40:00, 0.0,24.0
2023/05/17 09:50:00, 0.0,24.7
2023/05/17 10:00:00, 0.0,26.1
2023/05/17 10:10:00, 0.0,26.7
2023/05/17 10:20:00, 0.0,27.6
2023/05/17 10:30:00, 0.0,28.4
2023/05/17 10:40:00, 0.0,29.5
2023/05/17 10:50:00, 0.1,29.8
2023/05/17 11:00:00, 0.2,30.4
2023/05/17 11:10:00, 0.1,30.5
2023/05/17 11:20:00, 0.1,32.2
2023/05/17 11:30:00, 0.1,32.8
2023/05/17 11:40:00, 0.1,32.5
2023/05/17 11:50:00, 0.1,32.6
2023/05/17 12:00:00, 0.1,33.1
2023/05/17 12:10:00, 0.2,33.9
2023/05/17 12:20:00, 0.2,33.6
2023/05/17 12:30:00, 0.2,33.5
2023/05/17 12:40:00, 0.2,34.2
2023/05/17 12:50:00, 0.1,33.9
2023/05/17 13:00:00, 0.2,31.8
2023/05/17 13:10:00, 0.2,32.4
2023/05/17 13:20:00, 0.2,31.8
2023/05/17 13:30:00, 0.2,32.1
2023/05/17 13:40:00, 0.2,32.1
2023/05/17 13:50:00, 0.2,31.1
2023/05/17 14:00:00, 0.2,31.0
2023/05/17 14:10:00,---,30.7
2023/05/17 14:20:00, 0.0,31.2
2023/05/17 14:30:00, 0.2,31.6
2023/05/17 14:40:00, 0.2,31.2
2023/05/17 14:50:00, 0.3,30.9
2023/05/17 15:00:00, 0.3,31.3
2023/05/17 15:10:00, 0.3,31.0
2023/05/17 15:20:00, 0.4,31.0
2023/05/17 15:30:00, 0.8,30.9
2023/05/17 15:40:00, 1.7,31.2
2023/05/17 15:50:00, 1.9,30.7
2023/05/17 16:00:00, 2.4,30.8
2023/05/17 16:10:00, 2.0,30.6
2023/05/17 16:20:00, 2.4,30.3
2023/05/17 16:30:00, 2.0,30.6
2023/05/17 16:40:00, 1.9,30.4
2023/05/17 16:50:00, 1.7,30.3
2023/05/17 17:00:00, 1.2,30.5
2023/05/17 17:10:00, 0.5,29.3
2023/05/17 17:20:00, 0.4,28.1
2023/05/17 17:30:00, 0.3,27.6
2023/05/17 17:40:00, 0.3,26.7
2023/05/17 17:50:00, 0.2,24.5
2023/05/17 18:00:00, 0.2,24.1
2023/05/17 18:10:00, 0.4,23.3
2023/05/17 18:20:00, 0.5,22.7
2023/05/17 18:30:00, 0.4,22.2
2023/05/17 18:40:00, 0.6,21.8
2023/05/17 18:50:00, 1.2,21.3
2023/05/17 19:00:00, 1.2,20.7
2023/05/17 19:10:00, 1.4,20.3
2023/05/17 19:20:00, 1.4,20.1
2023/05/17 19:30:00, 1.8,19.8
2023/05/17 19:40:00, 2.1,19.4
2023/05/17 19:50:00, 2.6,18.7
2023/05/17 20:00:00, 4.6,18.7
2023/05/17 20:10:00, 5.5,18.2
2023/05/17 20:20:00, 5.6,18.0
2023/05/17 20:30:00, 6.8,18.0
2023/05/17 20:40:00, 8.9,17.8
2023/05/17 20:50:00,11.1,17.5
2023/05/17 21:00:00,11.5,17.4
2023/05/17 21:10:00,10.6,17.3
2023/05/17 21:20:00,11.9,17.3
2023/05/17 21:30:00,11.0,17.1
2023/05/17 21:40:00,12.0,16.8
2023/05/17 21:50:00,12.1,16.8
2023/05/17 22:00:00,11.5,16.8
2023/05/17 22:10:00,---,16.3
2023/05/17 22:20:00,10.2,16.3
2023/05/17 22:30:00,11.3,16.2
2023/05/17 22:40:00,10.0,15.8
2023/05/17 22:50:00,11.9,15.6
2023/05/17 23:00:00,11.8,15.5
2023/05/17 23:10:00,10.0,15.6
2023/05/17 23:20:00, 3.6,15.5
2023/05/17 23:30:00, 0.3,15.2
2023/05/17 23:40:00, 0.3,14.9
2023/05/17 23:50:00, 0.6,14.8
